MSR762 OEJN-HECA

Flight info

Callsign MSR762
Flight time 1h 45m
Altitude 38000
Route MIGDA L677 CVO
Aircraft A388/J-SADE2E3FGHIJ3J4J5M1RWXY/LB1D1

Departure

Time 2026-04-28 17:49
Airport King Abdulaziz International Airport (OEJN)

Arrival

Time 2026-04-28 19:35
Airport Cairo International Airport (HECA)
Time Latitude Longitude Altitude Speed Heading
2026-04-28 16:58 21.66694 39.17244 44 ft 0 kts 250°
2026-04-28 17:42 21.66701 39.17268 42 ft 4 kts 256°
2026-04-28 17:42 21.66707 39.17296 41 ft 4 kts 254°
2026-04-28 17:43 21.66718 39.17320 41 ft 4 kts 214°
2026-04-28 17:43 21.66738 39.17330 43 ft 5 kts 169°
2026-04-28 17:43 21.66762 39.17319 45 ft 5 kts 157°
2026-04-28 17:43 21.66766 39.17316 44 ft 3 kts 160°
2026-04-28 17:46 21.66751 39.17322 42 ft 4 kts 160°
2026-04-28 17:46 21.66685 39.17348 44 ft 14 kts 160°
2026-04-28 17:46 21.66600 39.17389 48 ft 13 kts 142°
2026-04-28 17:46 21.66566 39.17455 48 ft 9 kts 149°
2026-04-28 17:47 21.66515 39.17512 50 ft 11 kts 110°
2026-04-28 17:47 21.66519 39.17603 54 ft 15 kts 73°
2026-04-28 17:47 21.66554 39.17716 52 ft 17 kts 71°
2026-04-28 17:47 21.66581 39.17795 57 ft 17 kts 70°
2026-04-28 17:48 21.66616 39.17897 57 ft 0 kts 68°
2026-04-28 17:48 21.66637 39.17950 55 ft 16 kts 64°
2026-04-28 17:48 21.66728 39.18013 61 ft 17 kts 358°
2026-04-28 17:48 21.66873 39.17960 59 ft 45 kts 339°
2026-04-28 17:49 21.67483 39.17721 52 ft 136 kts 340°
2026-04-28 17:49 21.68541 39.17317 180 ft 178 kts 341°
2026-04-28 17:49 21.69708 39.16961 1011 ft 173 kts 350°
2026-04-28 17:49 21.70893 39.16695 1688 ft 179 kts 345°
2026-04-28 17:50 21.72169 39.16363 1997 ft 196 kts 347°
2026-04-28 17:50 21.73577 39.16046 2231 ft 219 kts 348°
2026-04-28 17:50 21.75155 39.16046 2669 ft 240 kts 15°
2026-04-28 17:50 21.76731 39.16852 3120 ft 261 kts 33°
2026-04-28 17:51 21.78388 39.17688 3833 ft 267 kts 11°
2026-04-28 17:51 21.80215 39.17636 4682 ft 269 kts 343°
2026-04-28 17:51 21.81945 39.16854 5512 ft 272 kts 332°
2026-04-28 17:51 21.83617 39.15862 6350 ft 275 kts 330°
2026-04-28 17:52 21.85310 39.14879 7180 ft 279 kts 332°
2026-04-28 17:52 21.87056 39.13941 7999 ft 282 kts 334°
2026-04-28 17:52 21.90627 39.12162 9573 ft 289 kts 335°
2026-04-28 17:53 21.92481 39.11264 10322 ft 295 kts 335°
2026-04-28 17:53 21.94426 39.10323 10587 ft 317 kts 335°
2026-04-28 17:53 21.96505 39.09316 10793 ft 337 kts 335°
2026-04-28 17:53 21.98648 39.08278 11297 ft 345 kts 335°
2026-04-28 17:54 22.00855 39.07207 11976 ft 348 kts 335°
2026-04-28 17:54 22.03074 39.06130 12649 ft 352 kts 335°
2026-04-28 17:54 22.05325 39.05036 13302 ft 355 kts 335°
2026-04-28 17:54 22.07580 39.03940 13950 ft 359 kts 335°
2026-04-28 17:55 22.09881 39.02821 14584 ft 362 kts 335°
2026-04-28 17:55 22.12159 39.01713 15180 ft 365 kts 335°
2026-04-28 17:55 22.14491 39.00579 15790 ft 369 kts 335°
2026-04-28 17:55 22.16843 38.99434 16379 ft 372 kts 335°
2026-04-28 17:56 22.19217 38.98278 16945 ft 375 kts 335°
2026-04-28 17:56 22.21610 38.97112 17501 ft 378 kts 335°
2026-04-28 17:56 22.24017 38.95939 18041 ft 382 kts 335°
2026-04-28 17:56 22.26422 38.94767 18567 ft 385 kts 335°
2026-04-28 17:57 22.28868 38.93574 19060 ft 388 kts 335°
2026-04-28 17:57 22.31338 38.92369 19575 ft 391 kts 335°
2026-04-28 17:57 22.33820 38.91157 20062 ft 394 kts 335°
2026-04-28 17:57 22.36330 38.89932 20542 ft 396 kts 335°
2026-04-28 17:58 22.38852 38.88700 21009 ft 399 kts 335°
2026-04-28 17:58 22.41394 38.87458 21466 ft 402 kts 335°
2026-04-28 17:58 22.43954 38.86206 21916 ft 405 kts 335°
2026-04-28 17:58 22.46531 38.84946 22360 ft 408 kts 335°
2026-04-28 17:59 22.49134 38.83673 22792 ft 410 kts 335°
2026-04-28 17:59 22.51745 38.82395 23216 ft 413 kts 335°
2026-04-28 17:59 22.54342 38.81123 23632 ft 416 kts 335°
2026-04-28 17:59 22.56983 38.79830 24045 ft 418 kts 335°
2026-04-28 18:00 22.59647 38.78524 24457 ft 421 kts 335°
2026-04-28 18:00 22.62322 38.77212 24863 ft 424 kts 335°
2026-04-28 18:00 22.65025 38.75887 25263 ft 426 kts 335°
2026-04-28 18:00 22.67732 38.74558 25676 ft 429 kts 335°
2026-04-28 18:01 22.70466 38.73216 26107 ft 432 kts 335°
2026-04-28 18:01 22.73215 38.71866 26544 ft 435 kts 335°
2026-04-28 18:01 22.75976 38.70509 26981 ft 438 kts 335°
2026-04-28 18:01 22.78734 38.69154 27414 ft 441 kts 335°
2026-04-28 18:02 22.81539 38.67774 27856 ft 444 kts 335°
2026-04-28 18:02 22.84359 38.66387 28300 ft 447 kts 335°
2026-04-28 18:02 22.87202 38.64987 28730 ft 450 kts 335°
2026-04-28 18:02 22.90059 38.63580 29158 ft 453 kts 335°
2026-04-28 18:03 22.92938 38.62162 29581 ft 456 kts 335°
2026-04-28 18:03 22.95838 38.60732 30023 ft 459 kts 335°
2026-04-28 18:03 22.98753 38.59295 30430 ft 462 kts 335°
2026-04-28 18:03 23.01695 38.57843 30851 ft 465 kts 335°
2026-04-28 18:04 23.04660 38.56379 31261 ft 468 kts 335°
2026-04-28 18:04 23.07592 38.54932 31652 ft 471 kts 335°
2026-04-28 18:04 23.10587 38.53452 32052 ft 474 kts 335°
2026-04-28 18:04 23.13600 38.51962 32436 ft 477 kts 335°
2026-04-28 18:05 23.16634 38.50461 32817 ft 480 kts 335°
2026-04-28 18:05 23.18642 38.49468 33065 ft 482 kts 335°
2026-04-28 18:05 23.22751 38.47434 33564 ft 485 kts 335°
2026-04-28 18:05 23.25836 38.45906 33928 ft 488 kts 335°
2026-04-28 18:06 23.28937 38.44369 34286 ft 491 kts 335°
2026-04-28 18:06 23.32059 38.42821 34652 ft 494 kts 335°
2026-04-28 18:06 23.35187 38.41269 35111 ft 494 kts 335°
2026-04-28 18:06 23.38305 38.39721 35610 ft 492 kts 335°
2026-04-28 18:07 23.41384 38.38192 36097 ft 491 kts 335°
2026-04-28 18:07 23.44496 38.36645 36538 ft 491 kts 335°
2026-04-28 18:07 23.47611 38.35097 36955 ft 491 kts 335°
2026-04-28 18:07 23.50720 38.33550 37370 ft 491 kts 335°
2026-04-28 18:08 23.53826 38.32004 37756 ft 491 kts 335°
2026-04-28 18:08 23.56945 38.30451 38007 ft 494 kts 335°
2026-04-28 18:08 23.63223 38.27323 38000 ft 493 kts 335°
2026-04-28 18:09 23.69534 38.24321 38000 ft 495 kts 338°
2026-04-28 18:09 23.75883 38.21520 38000 ft 495 kts 338°
2026-04-28 18:10 23.82265 38.18666 38000 ft 495 kts 337°
2026-04-28 18:10 23.88632 38.15793 38001 ft 495 kts 337°
2026-04-28 18:11 23.93929 38.13397 37999 ft 495 kts 337°
2026-04-28 18:11 24.00280 38.10521 37999 ft 494 kts 337°
2026-04-28 18:12 24.06648 38.07635 37998 ft 494 kts 337°
2026-04-28 18:12 24.12989 38.04701 37996 ft 494 kts 334°
2026-04-28 18:13 24.18890 38.00919 37998 ft 494 kts 324°
2026-04-28 18:13 24.24560 37.96646 37998 ft 494 kts 325°
2026-04-28 18:14 24.30254 37.92395 38000 ft 494 kts 325°
2026-04-28 18:14 24.35898 37.88163 38001 ft 494 kts 325°
2026-04-28 18:15 24.41565 37.83903 38002 ft 494 kts 325°
2026-04-28 18:15 24.47245 37.79627 38003 ft 494 kts 325°
2026-04-28 18:16 24.52920 37.75351 38002 ft 494 kts 325°
2026-04-28 18:16 24.58593 37.71072 38002 ft 494 kts 325°
2026-04-28 18:17 24.64270 37.66785 38002 ft 494 kts 325°
2026-04-28 18:17 24.69937 37.62501 38001 ft 494 kts 325°
2026-04-28 18:18 24.75576 37.58233 38001 ft 494 kts 325°
2026-04-28 18:18 24.80284 37.54666 38000 ft 494 kts 325°
2026-04-28 18:19 24.86907 37.49642 38000 ft 494 kts 325°
2026-04-28 18:19 24.92565 37.45345 38000 ft 494 kts 325°
2026-04-28 18:20 24.98191 37.41067 38000 ft 494 kts 325°
2026-04-28 18:20 25.03864 37.36749 38000 ft 494 kts 325°
2026-04-28 18:21 25.09526 37.32434 38000 ft 494 kts 325°
2026-04-28 18:21 25.15188 37.28114 38000 ft 494 kts 325°
2026-04-28 18:22 25.20805 37.23824 38001 ft 494 kts 325°
2026-04-28 18:22 25.26461 37.19500 38001 ft 494 kts 325°
2026-04-28 18:23 25.32116 37.15170 38001 ft 494 kts 325°
2026-04-28 18:23 25.37765 37.10839 38001 ft 494 kts 325°
2026-04-28 18:24 25.40588 37.08692 37017 ft 489 kts 315°
2026-04-28 18:24 25.42412 37.07301 37259 ft 472 kts 316°
2026-04-28 18:24 25.45917 37.04620 37769 ft 443 kts 315°
2026-04-28 18:24 25.48395 37.02713 37924 ft 438 kts 315°
2026-04-28 18:25 25.53404 36.98830 37899 ft 441 kts 315°
2026-04-28 18:26 25.60962 36.92998 37906 ft 442 kts 315°
2026-04-28 18:26 25.66025 36.89093 37896 ft 443 kts 315°
2026-04-28 18:27 25.71088 36.85185 37901 ft 443 kts 315°
2026-04-28 18:27 25.76142 36.81279 37898 ft 443 kts 315°
2026-04-28 18:28 25.81171 36.77388 37888 ft 443 kts 315°
2026-04-28 18:28 25.86230 36.73470 37884 ft 443 kts 315°
2026-04-28 18:29 25.91288 36.69548 37878 ft 443 kts 315°
2026-04-28 18:29 25.96351 36.65618 37875 ft 444 kts 315°
2026-04-28 18:30 26.01415 36.61682 37873 ft 444 kts 315°
2026-04-28 18:30 26.06491 36.57733 37878 ft 445 kts 315°
2026-04-28 18:31 26.11572 36.53777 37881 ft 447 kts 315°
2026-04-28 18:31 26.16592 36.49777 37890 ft 443 kts 311°
2026-04-28 18:32 26.21088 36.45190 37889 ft 434 kts 304°
2026-04-28 18:32 26.25289 36.40331 37894 ft 435 kts 306°
2026-04-28 18:33 26.29488 36.35515 37893 ft 435 kts 305°
2026-04-28 18:33 26.33702 36.30661 37898 ft 435 kts 305°
2026-04-28 18:34 26.37882 36.25835 37884 ft 435 kts 305°
2026-04-28 18:34 26.42066 36.21000 37882 ft 433 kts 305°
2026-04-28 18:35 26.46260 36.16145 37889 ft 434 kts 305°
2026-04-28 18:35 26.50458 36.11281 37900 ft 434 kts 305°
2026-04-28 18:36 26.54636 36.06436 37903 ft 435 kts 304°
2026-04-28 18:36 26.58835 36.01560 37910 ft 435 kts 304°
2026-04-28 18:37 26.63036 35.96677 37909 ft 435 kts 304°
2026-04-28 18:37 26.67203 35.91828 37908 ft 434 kts 304°
2026-04-28 18:38 26.71387 35.86953 37911 ft 434 kts 304°
2026-04-28 18:38 26.75580 35.82063 37902 ft 434 kts 304°
2026-04-28 18:39 26.79733 35.77214 37903 ft 433 kts 304°
2026-04-28 18:39 26.83906 35.72335 37905 ft 433 kts 304°
2026-04-28 18:40 26.88077 35.67455 37904 ft 433 kts 304°
2026-04-28 18:40 26.92242 35.62577 37918 ft 433 kts 304°
2026-04-28 18:41 26.96379 35.57724 37905 ft 433 kts 304°
2026-04-28 18:41 27.00543 35.52835 37909 ft 433 kts 304°
2026-04-28 18:42 27.04701 35.47947 37908 ft 433 kts 304°
2026-04-28 18:42 27.08860 35.43053 37915 ft 433 kts 304°
2026-04-28 18:43 27.13022 35.38149 37915 ft 434 kts 304°
2026-04-28 18:43 27.17163 35.33264 37916 ft 434 kts 304°
2026-04-28 18:44 27.21328 35.28346 37919 ft 434 kts 304°
2026-04-28 18:44 27.27577 35.20956 37922 ft 434 kts 304°
2026-04-28 18:45 27.31711 35.16060 37922 ft 434 kts 304°
2026-04-28 18:45 27.35872 35.11127 37917 ft 434 kts 304°
2026-04-28 18:46 27.40030 35.06191 37917 ft 433 kts 304°
2026-04-28 18:46 27.44155 35.01288 37918 ft 433 kts 304°
2026-04-28 18:47 27.48303 34.96353 37913 ft 433 kts 305°
2026-04-28 18:47 27.52518 34.91482 37906 ft 437 kts 308°
2026-04-28 18:48 27.56937 34.86846 37899 ft 436 kts 308°
2026-04-28 18:48 27.61353 34.82182 37891 ft 436 kts 308°
2026-04-28 18:49 27.64314 34.79050 37890 ft 436 kts 308°
2026-04-28 18:49 27.70206 34.72814 37891 ft 436 kts 308°
2026-04-28 18:50 27.74623 34.68133 37887 ft 436 kts 308°
2026-04-28 18:50 27.79014 34.63473 37891 ft 436 kts 308°
2026-04-28 18:51 27.83431 34.58781 37899 ft 436 kts 308°
2026-04-28 18:51 27.87848 34.54084 37899 ft 436 kts 308°
2026-04-28 18:52 27.92262 34.49384 37909 ft 436 kts 308°
2026-04-28 18:52 27.96677 34.44677 37912 ft 436 kts 308°
2026-04-28 18:53 28.00907 34.39811 37907 ft 429 kts 302°
2026-04-28 18:53 28.04653 34.34610 37908 ft 428 kts 302°
2026-04-28 18:54 28.08439 34.29393 37905 ft 428 kts 302°
2026-04-28 18:54 28.12221 34.24165 37912 ft 429 kts 302°
2026-04-28 18:55 28.15369 34.19801 37919 ft 429 kts 302°
2026-04-28 18:55 28.19749 34.13713 37934 ft 429 kts 302°
2026-04-28 18:56 28.23529 34.08467 37968 ft 429 kts 302°
2026-04-28 18:56 28.27312 34.03197 37953 ft 429 kts 302°
2026-04-28 18:57 28.31036 33.98002 37940 ft 427 kts 302°
2026-04-28 18:57 28.34793 33.92778 37940 ft 425 kts 302°
2026-04-28 18:58 28.38542 33.87532 37965 ft 428 kts 302°
2026-04-28 18:58 28.42289 33.82286 37979 ft 430 kts 302°
2026-04-28 18:59 28.46069 33.76990 37974 ft 432 kts 302°
2026-04-28 18:59 28.49853 33.71688 37979 ft 432 kts 302°
2026-04-28 19:00 28.53000 33.67274 37983 ft 431 kts 302°
2026-04-28 19:00 28.56779 33.61971 37981 ft 432 kts 303°
2026-04-28 19:01 28.60575 33.56644 37960 ft 433 kts 303°
2026-04-28 19:01 28.64373 33.51306 37988 ft 433 kts 303°
2026-04-28 19:02 28.68134 33.45999 37970 ft 434 kts 303°
2026-04-28 19:02 28.71944 33.40618 37978 ft 434 kts 303°
2026-04-28 19:03 28.75694 33.35318 37988 ft 434 kts 303°
2026-04-28 19:03 28.79479 33.29961 38003 ft 433 kts 303°
2026-04-28 19:04 28.83259 33.24604 37941 ft 430 kts 303°
2026-04-28 19:04 28.85126 33.21958 37617 ft 426 kts 303°
2026-04-28 19:04 28.86986 33.19320 37049 ft 424 kts 303°
2026-04-28 19:05 28.88832 33.16695 36340 ft 425 kts 303°
2026-04-28 19:05 28.90688 33.14055 35627 ft 426 kts 303°
2026-04-28 19:05 28.92548 33.11406 34883 ft 428 kts 303°
2026-04-28 19:05 28.94416 33.08748 34163 ft 429 kts 303°
2026-04-28 19:06 28.96279 33.06095 33478 ft 428 kts 304°
2026-04-28 19:06 28.98134 33.03453 32890 ft 424 kts 304°
2026-04-28 19:06 28.99970 33.00837 32312 ft 420 kts 304°
2026-04-28 19:06 29.01760 32.98284 31773 ft 416 kts 304°
2026-04-28 19:07 29.03558 32.95718 31466 ft 410 kts 304°
2026-04-28 19:07 29.05345 32.93164 31227 ft 412 kts 304°
2026-04-28 19:07 29.07138 32.90598 30984 ft 412 kts 304°
2026-04-28 19:07 29.08926 32.88039 30749 ft 411 kts 304°
2026-04-28 19:08 29.10715 32.85478 30517 ft 410 kts 304°
2026-04-28 19:08 29.12472 32.82963 30284 ft 408 kts 304°
2026-04-28 19:08 29.14244 32.80423 30047 ft 407 kts 305°
2026-04-28 19:08 29.16005 32.77898 29777 ft 406 kts 305°
2026-04-28 19:09 29.17762 32.75378 29499 ft 404 kts 305°
2026-04-28 19:09 29.19511 32.72868 29225 ft 403 kts 305°
2026-04-28 19:09 29.21255 32.70362 28957 ft 401 kts 305°
2026-04-28 19:09 29.22992 32.67866 28520 ft 400 kts 305°
2026-04-28 19:10 29.24720 32.65381 28044 ft 396 kts 305°
2026-04-28 19:10 29.26421 32.62934 27586 ft 390 kts 304°
2026-04-28 19:10 29.28102 32.60516 27091 ft 385 kts 304°
2026-04-28 19:10 29.29760 32.58122 26629 ft 380 kts 304°
2026-04-28 19:11 29.31366 32.55784 26174 ft 376 kts 304°
2026-04-28 19:11 29.32972 32.53440 25707 ft 372 kts 304°
2026-04-28 19:11 29.34561 32.51122 25256 ft 368 kts 304°
2026-04-28 19:11 29.36131 32.48832 24815 ft 364 kts 304°
2026-04-28 19:12 29.37697 32.46547 24357 ft 362 kts 304°
2026-04-28 19:12 29.39242 32.44291 23916 ft 359 kts 304°
2026-04-28 19:12 29.40781 32.42043 23442 ft 357 kts 304°
2026-04-28 19:12 29.42306 32.39816 22983 ft 353 kts 304°
2026-04-28 19:13 29.43814 32.37614 22543 ft 349 kts 304°
2026-04-28 19:13 29.45301 32.35440 22104 ft 346 kts 304°
2026-04-28 19:13 29.46784 32.33269 21656 ft 343 kts 305°
2026-04-28 19:13 29.48255 32.31116 21211 ft 342 kts 305°
2026-04-28 19:14 29.49702 32.28996 20779 ft 341 kts 305°
2026-04-28 19:14 29.51161 32.26853 20337 ft 339 kts 307°
2026-04-28 19:14 29.52616 32.24721 19900 ft 338 kts 307°
2026-04-28 19:14 29.54068 32.22593 19462 ft 339 kts 307°
2026-04-28 19:15 29.55521 32.20460 19014 ft 338 kts 307°
2026-04-28 19:15 29.56966 32.18340 18582 ft 337 kts 307°
2026-04-28 19:15 29.58408 32.16222 18105 ft 336 kts 307°
2026-04-28 19:15 29.59359 32.14825 17807 ft 334 kts 308°
2026-04-28 19:16 29.61250 32.12045 17240 ft 330 kts 308°
2026-04-28 19:16 29.62659 32.09972 16788 ft 328 kts 308°
2026-04-28 19:16 29.64061 32.07908 16359 ft 326 kts 308°
2026-04-28 19:16 29.65453 32.05859 15927 ft 324 kts 308°
2026-04-28 19:17 29.66839 32.03816 15508 ft 323 kts 308°
2026-04-28 19:17 29.68217 32.01785 15070 ft 321 kts 308°
2026-04-28 19:17 29.69590 31.99759 14652 ft 320 kts 308°
2026-04-28 19:17 29.70956 31.97744 14219 ft 319 kts 308°
2026-04-28 19:18 29.72316 31.95735 13799 ft 318 kts 309°
2026-04-28 19:18 29.73659 31.93751 13346 ft 316 kts 309°
2026-04-28 19:18 29.75004 31.91763 12942 ft 313 kts 309°
2026-04-28 19:18 29.76341 31.89786 12528 ft 311 kts 309°
2026-04-28 19:19 29.77664 31.87829 12116 ft 308 kts 309°
2026-04-28 19:19 29.78957 31.85910 11727 ft 306 kts 309°
2026-04-28 19:19 29.80246 31.83924 11314 ft 305 kts 308°
2026-04-28 19:19 29.81479 31.81985 10915 ft 303 kts 308°
2026-04-28 19:20 29.82725 31.80023 10522 ft 301 kts 308°
2026-04-28 19:20 29.83942 31.78114 10400 ft 289 kts 308°
2026-04-28 19:20 29.85050 31.76216 10296 ft 283 kts 297°
2026-04-28 19:20 29.85518 31.74023 10166 ft 284 kts 280°
2026-04-28 19:21 29.85731 31.71790 9920 ft 283 kts 279°
2026-04-28 19:21 29.85938 31.69538 9502 ft 282 kts 279°
2026-04-28 19:21 29.86152 31.67288 9140 ft 280 kts 279°
2026-04-28 19:21 29.86367 31.65072 8755 ft 279 kts 279°
2026-04-28 19:22 29.86583 31.62849 8415 ft 277 kts 279°
2026-04-28 19:22 29.86671 31.61381 8154 ft 277 kts 274°
2026-04-28 19:22 29.86235 31.58453 7673 ft 280 kts 255°
2026-04-28 19:22 29.85609 31.56324 7307 ft 279 kts 255°
2026-04-28 19:23 29.84992 31.54238 6957 ft 278 kts 254°
2026-04-28 19:23 29.84372 31.52139 6642 ft 275 kts 255°
2026-04-28 19:23 29.83762 31.50050 6300 ft 274 kts 255°
2026-04-28 19:23 29.83200 31.47964 5949 ft 271 kts 260°
2026-04-28 19:24 29.82877 31.45835 5588 ft 269 kts 265°
2026-04-28 19:24 29.82607 31.43736 5440 ft 259 kts 265°
2026-04-28 19:24 29.82343 31.41744 5267 ft 244 kts 265°
2026-04-28 19:24 29.82089 31.39856 5170 ft 235 kts 265°
2026-04-28 19:25 29.81840 31.38045 5060 ft 228 kts 265°
2026-04-28 19:25 29.81589 31.36268 4904 ft 224 kts 264°
2026-04-28 19:25 29.81347 31.34494 4652 ft 223 kts 265°
2026-04-28 19:25 29.81425 31.32749 4407 ft 217 kts 288°
2026-04-28 19:26 29.82025 31.31172 4130 ft 214 kts 304°
2026-04-28 19:26 29.83008 31.29919 3990 ft 210 kts 320°
2026-04-28 19:26 29.84145 31.28867 3990 ft 210 kts 325°
2026-04-28 19:26 29.85332 31.27901 3986 ft 205 kts 326°
2026-04-28 19:27 29.86481 31.26970 3998 ft 198 kts 326°
2026-04-28 19:27 29.87580 31.26078 3996 ft 182 kts 326°
2026-04-28 19:27 29.88563 31.25279 3989 ft 169 kts 326°
2026-04-28 19:27 29.89563 31.24465 3988 ft 177 kts 326°
2026-04-28 19:28 29.90539 31.23651 3989 ft 170 kts 322°
2026-04-28 19:28 29.91413 31.22746 3991 ft 168 kts 317°
2026-04-28 19:28 29.92257 31.21809 3994 ft 167 kts 317°
2026-04-28 19:28 29.93092 31.20901 3988 ft 166 kts 323°
2026-04-28 19:29 29.94155 31.20435 3997 ft 167 kts 357°
2026-04-28 19:29 29.94936 31.20591 3997 ft 172 kts 18°
2026-04-28 19:29 29.96234 31.21619 3985 ft 170 kts 40°
2026-04-28 19:29 29.97034 31.22596 3992 ft 167 kts 44°
2026-04-28 19:30 29.97796 31.23601 3928 ft 166 kts 44°
2026-04-28 19:30 29.98541 31.24592 3753 ft 160 kts 44°
2026-04-28 19:30 29.99252 31.25539 3525 ft 153 kts 44°
2026-04-28 19:30 29.99949 31.26466 3341 ft 152 kts 44°
2026-04-28 19:31 30.00646 31.27393 3135 ft 152 kts 44°
2026-04-28 19:31 30.01328 31.28305 2928 ft 150 kts 44°
2026-04-28 19:31 30.02002 31.29203 2742 ft 150 kts 44°
2026-04-28 19:31 30.02682 31.30110 2545 ft 148 kts 44°
2026-04-28 19:32 30.03356 31.31005 2373 ft 148 kts 44°
2026-04-28 19:32 30.04022 31.31896 2170 ft 145 kts 44°
2026-04-28 19:32 30.04682 31.32776 1988 ft 144 kts 44°
2026-04-28 19:32 30.05346 31.33660 1796 ft 147 kts 44°
2026-04-28 19:33 30.06015 31.34552 1602 ft 147 kts 45°
2026-04-28 19:33 30.06685 31.35449 1412 ft 147 kts 46°
2026-04-28 19:33 30.07357 31.36344 1220 ft 147 kts 48°
2026-04-28 19:33 30.08022 31.37223 1032 ft 147 kts 48°
2026-04-28 19:34 30.08684 31.38091 851 ft 142 kts 49°
2026-04-28 19:34 30.09366 31.39015 664 ft 163 kts 50°
2026-04-28 19:34 30.10088 31.39978 453 ft 149 kts 49°
2026-04-28 19:34 30.10688 31.40770 390 ft 106 kts 49°
2026-04-28 19:35 30.11000 31.41197 392 ft 33 kts 51°
2026-04-28 19:35 30.11118 31.41353 391 ft 31 kts 46°
2026-04-28 19:35 30.11268 31.41522 390 ft 31 kts 36°
2026-04-28 19:35 30.11488 31.41616 381 ft 34 kts 356°
2026-04-28 19:36 30.11540 31.41525 379 ft 11 kts 218°
2026-04-28 19:36 30.11476 31.41451 380 ft 15 kts 229°
2026-04-28 19:36 30.11404 31.41340 375 ft 19 kts 236°
2026-04-28 19:36 30.11308 31.41206 377 ft 26 kts 228°
2026-04-28 19:37 30.11174 31.41032 378 ft 30 kts 230°
2026-04-28 19:37 30.11083 31.40909 376 ft 31 kts 229°
2026-04-28 19:37 30.10972 31.40662 375 ft 16 kts 233°
2026-04-28 19:37 30.10863 31.40465 374 ft 36 kts 229°
2026-04-28 19:38 30.10700 31.40249 371 ft 35 kts 230°
2026-04-28 19:38 30.10552 31.40024 373 ft 35 kts 231°
2026-04-28 19:38 30.10599 31.39830 367 ft 30 kts 343°
2026-04-28 19:38 30.10729 31.39802 358 ft 10 kts 349°
2026-04-28 19:39 30.10802 31.39778 357 ft 7 kts 331°
2026-04-28 19:39 30.10822 31.39744 355 ft 5 kts 257°
2026-04-28 19:39 30.10817 31.39723 352 ft 6 kts 251°
2026-04-28 19:39 30.10810 31.39692 351 ft 0 kts 259°